Weather History for Superior, WI

Change the Weather History Date:

Thursday, January 24, 2013

  Actual Average Record
Temperature  
Mean Temperature -6 °F -  
Max Temperature 7 °F 21 °F 53 °F (1981)
Min Temperature -17 °F 3 °F -27 °F (1952)
Degree Days  
Heating Degree Days 70    
Moisture  
Dew Point -14 °F    
Average Humidity 69    
Maximum Humidity 85    
Minimum Humidity 57    
Precipitation  
Precipitation 0.01 in - - ()
Sea Level Pressure  
Sea Level Pressure 30.53 in    
Wind  
Wind Speed 3 mph (West)    
Max Wind Speed 7 mph    
Max Gust Speed -    
Visibility 9 miles    
Events Snow    
Averages and records for this station are not official NWS values.
T = Trace of Precipitation, MM = Missing Value Source: NWS Daily Summary

Daily Weather History Graph

Daily Weather History Graph

Search for Another Location

Airport:

Trip Planner

Search our weather history database for the weather conditions in past years. The results will help you decide how hot, cold, wet, or windy it might be!

Date:

Astronomy

Jan. 24, 2013 Rise Set
Actual Time 7:41 AM CST 5:00 PM CST
Civil Twilight 7:08 AM CST 5:33 PM CST
Nautical Twilight 6:31 AM CST 6:10 PM CST
Astronomical Twilight 5:55 AM CST 6:46 PM CST
Moon 3:01 PM CST (1/24) 5:41 AM CST (1/24)
Length of Visible Light 10h 25m
Length of Day
9h 19m
Waxing Gibbous, 94% of the Moon is Illuminated
Jan 24
Waxing Gibbous
Jan 26
Full
Feb 3
Last Quarter
Feb 10
New
Feb 17
First Quarter

Hourly Weather History & Observations

Time (CST) Temp. Windchill Dew Point Humidity Pressure Visibility Wind Dir Wind Speed Gust Speed Precip Events Conditions
12:15 AM -13.0 °F -27.0 °F -21.6 °F 65% 30.64 in 10.0 mi NNW 5.8 mph - N/A   Clear
12:35 AM -12.6 °F -28.2 °F -21.5 °F 65% 30.64 in 10.0 mi NNW 6.9 mph - N/A   Clear
12:55 AM -13.0 °F -22.7 °F -21.5 °F 66% 30.64 in 10.0 mi WNW 3.5 mph - N/A   Clear
1:15 AM -14.3 °F -26.5 °F -23.1 °F 65% 30.64 in 10.0 mi NW 4.6 mph - N/A   Clear
1:35 AM -13.5 °F -25.7 °F -21.6 °F 67% 30.65 in 10.0 mi NW 4.6 mph - N/A   Clear
1:55 AM -14.3 °F -26.5 °F -22.0 °F 68% 30.66 in 10.0 mi NNW 4.6 mph - N/A   Clear
2:15 AM -14.6 °F -28.9 °F -23.1 °F 66% 30.66 in 10.0 mi NW 5.8 mph - N/A   Clear
2:35 AM -15.3 °F -27.8 °F -23.3 °F 67% 30.66 in 10.0 mi NNW 4.6 mph - N/A   Clear
2:55 AM -15.9 °F -30.4 °F -23.4 °F 69% 30.66 in 10.0 mi NW 5.8 mph - N/A   Clear
3:15 AM -16.2 °F -32.5 °F -24.0 °F 68% 30.66 in 10.0 mi NW 6.9 mph - N/A   Scattered Clouds
3:35 AM -16.6 °F -32.9 °F -24.2 °F 69% 30.66 in 10.0 mi NW 6.9 mph - N/A   Mostly Cloudy
3:55 AM -15.7 °F -28.2 °F -23.1 °F 69% 30.66 in 10.0 mi NW 4.6 mph - N/A   Scattered Clouds
4:15 AM -16.6 °F -29.3 °F -24.0 °F 69% 30.66 in 10.0 mi NW 4.6 mph - N/A   Clear
4:35 AM -14.8 °F -27.2 °F -22.7 °F 68% 30.66 in 10.0 mi WNW 4.6 mph - N/A   Clear
4:55 AM -15.9 °F -26.0 °F -23.1 °F 70% 30.66 in 10.0 mi WSW 3.5 mph - N/A   Clear
5:15 AM -17.0 °F -29.7 °F -23.8 °F 71% 30.66 in 10.0 mi West 4.6 mph - N/A   Clear
5:35 AM -16.8 °F -31.5 °F -23.3 °F 72% 30.67 in 10.0 mi SW 5.8 mph - N/A   Scattered Clouds
5:55 AM -16.6 °F -29.3 °F -23.4 °F 71% 30.67 in 10.0 mi SW 4.6 mph - N/A   Overcast
6:15 AM -16.6 °F -29.3 °F -23.4 °F 71% 30.69 in 10.0 mi WSW 4.6 mph - N/A   Overcast
6:35 AM -16.1 °F -26.2 °F -22.9 °F 71% 30.69 in 10.0 mi WSW 3.5 mph - N/A   Overcast
6:55 AM -15.9 °F - -22.9 °F 71% 30.69 in 10.0 mi Calm Calm - N/A   Mostly Cloudy
7:15 AM -16.1 °F - -22.9 °F 71% 30.68 in 10.0 mi Calm Calm - N/A   Scattered Clouds
7:35 AM -16.6 °F - -23.1 °F 72% 30.69 in 10.0 mi Calm Calm - N/A   Clear
7:55 AM -16.6 °F -26.8 °F -23.1 °F 72% 30.68 in 10.0 mi SW 3.5 mph - N/A   Clear
8:15 AM -16.6 °F -29.3 °F -23.1 °F 72% 30.67 in 10.0 mi SSW 4.6 mph - N/A   Clear
8:35 AM -15.9 °F -28.4 °F -22.5 °F 72% 30.67 in 10.0 mi SW 4.6 mph - N/A   Clear
8:55 AM -15.5 °F -28.0 °F -22.2 °F 72% 30.66 in 10.0 mi SW 4.6 mph - N/A   Clear
9:15 AM -14.1 °F -26.3 °F -21.3 °F 70% 30.67 in 10.0 mi SW 4.6 mph - N/A   Clear
9:35 AM -12.5 °F - -20.4 °F 68% 30.65 in 10.0 mi Calm Calm - N/A   Clear
9:55 AM -11.2 °F - -19.8 °F 66% 30.65 in 10.0 mi Calm Calm - N/A   Clear
10:15 AM -9.9 °F -19.2 °F -19.5 °F 63% 30.65 in 10.0 mi SW 3.5 mph - N/A   Clear
10:35 AM -8.5 °F - -19.3 °F 59% 30.64 in 10.0 mi Calm Calm - N/A   Clear
10:55 AM -7.1 °F - -18.0 °F 59% 30.64 in 10.0 mi Calm Calm - N/A   Clear
11:15 AM -6.0 °F - -15.7 °F 63% 30.63 in 10.0 mi Calm Calm - N/A   Clear
11:35 AM -5.3 °F - -15.0 °F 63% 30.63 in 10.0 mi Calm Calm - N/A   Clear
11:55 AM -4.0 °F - -13.9 °F 63% 30.62 in 10.0 mi Calm Calm - N/A   Clear
12:15 PM -2.9 °F - -13.4 °F 61% 30.60 in 10.0 mi Calm Calm - N/A   Clear
12:35 PM -2.4 °F - -13.0 °F 61% 30.58 in 10.0 mi Calm Calm - N/A   Clear
12:55 PM -1.7 °F - -13.0 °F 59% 30.57 in 10.0 mi Calm Calm - N/A   Clear
1:15 PM -1.5 °F - -12.5 °F 60% 30.57 in 10.0 mi Calm Calm - N/A   Clear
1:35 PM -0.8 °F - -11.7 °F 60% 30.56 in 10.0 mi Calm Calm - N/A   Mostly Cloudy
1:55 PM -0.4 °F - -11.6 °F 59% 30.54 in 10.0 mi Calm Calm - N/A   Overcast
2:15 PM -0.2 °F - -11.4 °F 59% 30.53 in 10.0 mi Calm Calm - N/A   Overcast
2:35 PM 0.3 °F - -11.2 °F 58% 30.52 in 10.0 mi Calm Calm - N/A   Overcast
2:55 PM 1.4 °F -6.2 °F -10.7 °F 57% 30.51 in 10.0 mi NE 3.5 mph - N/A   Mostly Cloudy
3:15 PM 1.6 °F - -10.7 °F 57% 30.50 in 10.0 mi Calm Calm - N/A   Mostly Cloudy
3:35 PM 1.4 °F - -10.3 °F 58% 30.49 in 10.0 mi Calm Calm - N/A   Overcast
3:55 PM 1.4 °F - -9.9 °F 59% 30.46 in 10.0 mi Calm Calm - N/A   Overcast
4:15 PM 1.9 °F - -9.4 °F 59% 30.45 in 10.0 mi Calm Calm - N/A   Overcast
4:35 PM 1.9 °F - -9.0 °F 60% 30.44 in 10.0 mi Calm Calm - N/A   Overcast
4:55 PM 2.1 °F - -8.9 °F 60% 30.43 in 10.0 mi Calm Calm - N/A   Overcast
5:15 PM 2.3 °F - -8.0 °F 62% 30.42 in 10.0 mi Calm Calm - N/A   Overcast
5:35 PM 2.3 °F - -7.4 °F 64% 30.41 in 10.0 mi Calm Calm - N/A   Overcast
5:55 PM 2.7 °F - -6.9 °F 64% 30.40 in 10.0 mi Calm Calm - N/A   Overcast
6:15 PM 2.8 °F - -5.8 °F 67% 30.38 in 5.0 mi Calm Calm - N/A   Haze
6:35 PM 2.8 °F - -3.8 °F 74% 30.39 in 3.0 mi Calm Calm - N/A Snow Light Snow
6:55 PM 3.4 °F -5.9 °F -2.0 °F 78% 30.37 in 2.5 mi East 4.6 mph - N/A Snow Light Snow
7:35 PM 3.9 °F - -0.0 °F 84% 30.34 in 1.0 mi Calm Calm - N/A Snow Snow
7:55 PM 3.9 °F - 0.3 °F 85% 30.33 in 1.5 mi Calm Calm - 0.01 in Snow Light Snow
8:15 PM 4.1 °F - 0.5 °F 85% 30.32 in 3.0 mi Calm Calm - N/A Snow Light Snow
8:35 PM 4.5 °F -4.7 °F 0.5 °F 84% 30.29 in 5.0 mi East 4.6 mph - N/A Snow Light Snow
8:55 PM 4.6 °F -4.5 °F 0.5 °F 83% 30.29 in 10.0 mi East 4.6 mph - N/A   Overcast
9:15 PM 4.8 °F - 0.5 °F 82% 30.27 in 10.0 mi Calm Calm - N/A   Overcast
9:35 PM 4.8 °F - 0.5 °F 82% 30.26 in 10.0 mi Calm Calm - N/A   Overcast
9:55 PM 5.0 °F - 0.5 °F 82% 30.26 in 10.0 mi Calm Calm - N/A   Overcast
10:15 PM 5.4 °F -1.7 °F 0.5 °F 80% 30.24 in 10.0 mi East 3.5 mph - N/A   Overcast
10:35 PM 5.7 °F - 0.5 °F 79% 30.22 in 10.0 mi Calm Calm - N/A   Overcast
10:55 PM 5.9 °F - 0.3 °F 78% 30.22 in 10.0 mi Calm Calm - N/A   Overcast
11:15 PM 6.3 °F - 0.5 °F 77% 30.20 in 10.0 mi Calm Calm - N/A   Overcast
11:35 PM 6.8 °F -2.0 °F 0.5 °F 75% 30.19 in 10.0 mi SSW 4.6 mph - N/A   Overcast
11:55 PM 7.5 °F -2.6 °F 0.3 °F 72% 30.18 in 10.0 mi SW 5.8 mph - N/A   Overcast